FW7023 Weather Reports


Display with metric or nautical units.
time (UTC)temp
F
wind
direction
speed
MPH
gust
MPH
rain 1hr
in
rain 24hr
in
rain mn
in
humidity
%
barometer
mb
20260504050427 63 82 1.0 2.0 0.00 0.00 0.00 71 1007.1
20260504045924 63 109 1.0 1.0 0.00 0.00 0.00 71 1006.9
20260504045420 62 183 1.0 1.0 0.00 0.00 0.00 72 1007.0
20260504044916 62 99 0.0 0.0 0.00 0.00 0.00 73 1006.9
20260504044414 62 134 0.0 1.0 0.00 0.00 0.00 75 1007.2
20260504043911 61 130 0.0 0.0 0.00 0.00 0.00 77 1007.1
20260504043408 61 155 0.0 0.0 0.00 0.00 0.00 77 1007.0
20260504042905 61 152 0.0 0.0 0.00 0.00 0.00 77 1007.0
20260504042402 60 170 0.0 1.0 0.00 0.00 0.00 78 1007.0
20260504041858 60 143 0.0 0.0 0.00 0.00 0.00 79 1007.3
20260504041354 60 143 1.0 1.0 0.00 0.00 0.00 78 1007.1
20260504040850 60 143 0.0 0.0 0.00 0.00 0.00 78 1007.3
20260504040348 60 142 0.0 0.0 0.00 0.00 0.00 77 1007.0
20260504035844 60 157 0.0 0.0 0.00 0.00 0.00 77 1006.9
20260504035342 61 157 0.0 0.0 0.00 0.00 0.00 76 1007.1
20260504034838 61 158 0.0 0.0 0.00 0.00 0.00 75 1006.8
20260504034336 62 158 0.0 0.0 0.00 0.00 0.00 74 1007.1
20260504033833 62 158 0.0 0.0 0.00 0.00 0.00 73 1007.2
20260504033331 62 166 0.0 0.0 0.00 0.00 0.00 71 1006.9
20260504032827 62 167 0.0 0.0 0.00 0.00 0.00 71 1007.2
20260504032324 62 167 1.0 1.0 0.00 0.00 0.00 71 1007.0
20260504031821 62 167 0.0 0.0 0.00 0.00 0.00 70 1006.9
20260504031319 63 145 0.0 0.0 0.00 0.00 0.00 69 1007.0
20260504030815 63 145 0.0 0.0 0.00 0.00 0.00 69 1007.1
20260504030312 63 168 0.0 0.0 0.00 0.00 0.00 68 1007.3
20260504025808 64 161 0.0 0.0 0.00 0.00 0.00 67 1007.1
20260504025306 64 162 0.0 0.0 0.00 0.00 0.00 65 1007.3
20260504024802 64 162 0.0 0.0 0.00 0.00 0.00 63 1007.3
20260504024258 64 156 0.0 0.0 0.00 0.00 0.00 63 1007.2
20260504023755 64 156 0.0 0.0 0.00 0.00 0.00 62 1007.2
20260504023252 65 155 0.0 0.0 0.00 0.00 0.00 62 1006.9
20260504022747 65 155 0.0 0.0 0.00 0.00 0.00 61 1007.0
20260504022244 66 156 0.0 1.0 0.00 0.00 0.00 61 1007.2
20260504021741 66 149 0.0 0.0 0.00 0.00 0.00 61 1007.1
20260504021238 66 136 0.0 0.0 0.00 0.00 0.00 60 1007.4
20260504020735 67 140 0.0 0.0 0.00 0.00 0.00 59 1007.1
20260504020231 67 139 0.0 0.0 0.00 0.00 0.00 59 1007.1
20260504015728 68 160 0.0 0.0 0.00 0.00 0.00 59 1007.2
20260504015224 68 170 0.0 0.0 0.00 0.00 0.00 58 1007.2
20260504014720 69 181 1.0 2.0 0.00 0.00 0.00 57 1006.9
20260504014217 69 144 0.0 0.0 0.00 0.00 0.00 56 1007.1
20260504013715 69 177 0.0 0.0 0.00 0.00 0.00 54 1007.1
20260504013212 70 162 0.0 0.0 0.00 0.00 0.00 53 1007.0
20260504012709 70 178 0.0 1.0 0.00 0.00 0.00 52 1007.0
20260504012207 70 162 0.0 0.0 0.00 0.00 0.00 51 1006.9
20260504011703 71 160 0.0 0.0 0.00 0.00 0.00 51 1007.1
20260504011200 71 160 0.0 0.0 0.00 0.00 0.00 52 1007.1
20260504010656 72 160 0.0 0.0 0.00 0.00 0.00 49 1007.0
20260504010151 72 160 0.0 0.0 0.00 0.00 0.00 49 1006.8
20260504005649 73 168 1.0 1.0 0.00 0.00 0.00 49 1006.8
20260504005145 73 169 0.0 1.0 0.00 0.00 0.00 50 1007.0
20260504004644 73 167 1.0 1.0 0.00 0.00 0.00 49 1006.7
20260504004140 74 178 1.0 2.0 0.00 0.00 0.00 52 1006.7
20260504003637 74 165 0.0 0.0 0.00 0.00 0.00 49 1006.9
20260504003133 74 178 1.0 2.0 0.00 0.00 0.00 50 1007.0
20260504002630 75 177 0.0 1.0 0.00 0.00 0.00 48 1007.0
20260504002128 77 177 1.0 2.0 0.00 0.00 0.00 47 1006.9
20260504001625 77 157 0.0 0.0 0.00 0.00 0.00 46 1006.8
20260504001121 78 166 0.0 0.0 0.00 0.00 0.00 45 1007.0
20260504000619 78 167 0.0 1.0 0.00 0.00 0.00 40 1007.1
20260504000116 79 109 1.0 1.0 0.00 0.00 0.00 40 1007.0
20260503235614 80 132 0.0 0.0 0.00 0.00 0.00 38 1006.8
20260503235110 80 131 0.0 0.0 0.00 0.00 0.00 37 1006.9
20260503234603 81 131 0.0 0.0 0.00 0.00 0.00 37 1006.9
20260503234100 81 125 0.0 0.0 0.00 0.00 0.00 34 1007.0
20260503233557 81 137 0.0 0.0 0.00 0.00 0.00 34 1007.0
20260503233052 82 114 1.0 1.0 0.00 0.00 0.00 33 1007.1
20260503232550 82 160 0.0 0.0 0.00 0.00 0.00 33 1007.1
20260503232047 82 214 0.0 0.0 0.00 0.00 0.00 32 1007.1
20260503231545 83 150 0.0 0.0 0.00 0.00 0.00 31 1007.1
20260503231041 83 112 0.0 1.0 0.00 0.00 0.00 30 1007.0
20260503230538 83 178 0.0 1.0 0.00 0.00 0.00 30 1007.1
20260503230036 84 219 0.0 1.0 0.00 0.00 0.00 30 1007.0
20260503225532 85 167 3.0 5.0 0.00 0.00 0.00 30 1007.0
20260503225027 84 174 2.0 3.0 0.00 0.00 0.00 29 1007.1
20260503224525 84 200 2.0 2.0 0.00 0.00 0.00 30 1007.2
20260503224023 85 211 3.0 5.0 0.00 0.00 0.00 29 1007.3
20260503223521 85 172 0.0 1.0 0.00 0.00 0.00 32 1007.3
20260503223016 84 184 0.0 0.0 0.00 0.00 0.00 30 1007.3
20260503222514 84 169 0.0 0.0 0.00 0.00 0.00 31 1007.3
20260503222012 84 116 1.0 1.0 0.00 0.00 0.00 30 1007.5
20260503221510 84 137 1.0 3.0 0.00 0.00 0.00 30 1007.6
20260503221007 85 235 3.0 5.0 0.00 0.00 0.00 30 1007.6
20260503220503 84 169 0.0 1.0 0.00 0.00 0.00 30 1007.5
20260503220000 84 214 3.0 6.0 0.00 0.00 0.00 28 1007.7
20260503215457 84 73 0.0 1.0 0.00 0.00 0.00 30 1007.6
20260503214954 85 256 3.0 3.0 0.00 0.00 0.00 28 1007.8
20260503214452 85 343 1.0 2.0 0.00 0.00 0.00 29 1007.8
20260503213949 86 164 3.0 7.0 0.00 0.00 0.00 29 1007.8
20260503213447 84 189 0.0 0.0 0.00 0.00 0.00 31 1007.8
20260503212943 84 179 2.0 5.0 0.00 0.00 0.00 31 1007.8
20260503212441 84 197 3.0 5.0 0.00 0.00 0.00 31 1008.0
20260503211938 84 206 3.0 5.0 0.00 0.00 0.00 34 1008.0
20260503211435 85 221 4.0 5.0 0.00 0.00 0.00 33 1008.1
20260503210930 84 196 2.0 3.0 0.00 0.00 0.00 34 1008.3
20260503210427 84 312 1.0 2.0 0.00 0.00 0.00 33 1008.3
20260503205922 84 12 2.0 6.0 0.00 0.00 0.00 33 1008.2
20260503205420 83 200 1.0 3.0 0.00 0.00 0.00 34 1008.5
20260503204916 84 175 1.0 1.0 0.00 0.00 0.00 34 1008.6
20260503204413 83 118 1.0 2.0 0.00 0.00 0.00 35 1008.6
20260503203910 83 198 3.0 3.0 0.00 0.00 0.00 35 1008.7
20260503203408 83 137 1.0 2.0 0.00 0.00 0.00 34 1009.1
20260503202904 82 220 5.0 6.0 0.00 0.00 0.00 34 1008.7
20260503202403 82 182 0.0 0.0 0.00 0.00 0.00 34 1009.1
20260503201901 82 149 0.0 0.0 0.00 0.00 0.00 36 1009.3
20260503201357 82 97 4.0 7.0 0.00 0.00 0.00 34 1009.5
20260503200855 82 218 5.0 7.0 0.00 0.00 0.00 33 1009.2
20260503200350 82 140 1.0 1.0 0.00 0.00 0.00 36 1009.4
20260503195848 81 195 3.0 5.0 0.00 0.00 0.00 35 1009.3
20260503195344 81 163 0.0 0.0 0.00 0.00 0.00 36 1009.5
20260503194842 81 183 2.0 3.0 0.00 0.00 0.00 34 1009.3
20260503194337 81 200 1.0 2.0 0.00 0.00 0.00 36 1009.8
20260503193834 81 137 1.0 2.0 0.00 0.00 0.00 36 1009.7
20260503193330 81 80 2.0 2.0 0.00 0.00 0.00 34 1009.8
20260503192826 81 155 2.0 2.0 0.00 0.00 0.00 36 1009.8
20260503192322 80 136 5.0 7.0 0.00 0.00 0.00 35 1009.8
20260503191818 80 165 0.0 0.0 0.00 0.00 0.00 38 1009.9
20260503191315 80 198 1.0 2.0 0.00 0.00 0.00 35 1010.1
20260503190812 79 161 1.0 1.0 0.00 0.00 0.00 39 1010.2
20260503190309 80 220 3.0 7.0 0.00 0.00 0.00 36 1009.9
20260503185806 80 152 0.0 0.0 0.00 0.00 0.00 38 1010.4
20260503185304 79 187 1.0 2.0 0.00 0.00 0.00 38 1010.1
20260503184801 79 206 1.0 2.0 0.00 0.00 0.00 36 1010.5
20260503184258 79 230 3.0 5.0 0.00 0.00 0.00 38 1010.4
20260503183754 80 99 1.0 2.0 0.00 0.00 0.00 37 1010.5
20260503183252 79 182 2.0 2.0 0.00 0.00 0.00 37 1010.5
20260503182749 78 132 0.0 1.0 0.00 0.00 0.00 39 1010.7
20260503182248 79 207 2.0 2.0 0.00 0.00 0.00 37 1010.7
20260503181744 79 273 3.0 3.0 0.00 0.00 0.00 37 1010.8
20260503181242 78 335 1.0 2.0 0.00 0.00 0.00 39 1010.9
20260503180738 77 135 2.0 2.0 0.00 0.00 0.00 38 1011.0
20260503180236 77 182 2.0 3.0 0.00 0.00 0.00 38 1010.9
20260503175732 76 88 3.0 5.0 0.00 0.00 0.00 39 1011.0
20260503175231 76 77 3.0 7.0 0.00 0.00 0.00 39 1011.1
20260503174726 76 241 5.0 6.0 0.00 0.00 0.00 38 1011.1
20260503174224 76 211 9.0 13.0 0.00 0.00 0.00 39 1011.3
20260503173719 76 56 2.0 2.0 0.00 0.00 0.00 40 1011.5
20260503173215 75 184 3.0 6.0 0.00 0.00 0.00 39 1011.0
20260503172712 76 150 5.0 8.0 0.00 0.00 0.00 40 1011.3
20260503172209 76 211 4.0 8.0 0.00 0.00 0.00 39 1011.4
20260503171705 75 1 1.0 5.0 0.00 0.00 0.00 40 1011.5
20260503171203 75 236 11.0 13.0 0.00 0.00 0.00 39 1011.7
20260503170700 75 107 2.0 2.0 0.00 0.00 0.00 41 1011.7
20260503170157 75 202 4.0 6.0 0.00 0.00 0.00 42 1012.0
20260503160118 69 186 4.0 6.0 0.00 0.00 0.00 45 1012.2
20260503150543 66 167 2.0 3.0 0.00 0.00 0.00 45 1012.7
20260503130932 55 274 2.0 3.0 0.00 0.00 0.00 51 1014.0
20260503130431 55 239 3.0 5.0 0.00 0.00 0.00 51 1014.0
20260503110326 52 222 4.0 5.0 0.00 0.00 0.00 53 1014.1
20260503100252 52 193 1.0 1.0 0.00 0.00 0.00 53 1015.1
20260503090212 49 177 1.0 1.0 0.00 0.00 0.00 61 1015.3
20260503081138 44 146 0.0 0.0 0.00 0.00 0.00 78 1015.9
20260503080634 44 170 0.0 0.0 0.00 0.00 0.00 78 1015.5
20260503080132 44 160 0.0 0.0 0.00 0.00 0.00 78 1015.6
20260503072609 42 167 0.0 0.0 0.00 0.00 0.00 85 1015.9
20260503072106 42 167 0.0 0.0 0.00 0.00 0.00 86 1016.0
20260503071603 42 168 0.0 0.0 0.00 0.00 0.00 87 1016.1
20260503071059 42 168 0.0 0.0 0.00 0.00 0.00 87 1015.9
20260503070556 42 168 0.0 0.0 0.00 0.00 0.00 88 1016.1
20260503055014 43 168 0.0 0.0 0.00 0.00 0.00 88 1016.9
20260503054510 43 168 0.0 0.0 0.00 0.00 0.00 88 1016.8
20260503054008 43 168 0.0 0.0 0.00 0.00 0.00 88 1016.8
20260503053506 43 168 0.0 0.0 0.00 0.00 0.00 88 1016.8
20260503053003 43 168 0.0 0.0 0.00 0.00 0.00 87 1017.0
20260503052500 43 168 0.0 0.0 0.00 0.00 0.00 87 1017.0
20260503051956 43 168 0.0 0.0 0.00 0.00 0.00 87 1016.8